Year,Month,Day,Hour,Minute,Value (Times are PST for temperature in C)
2015,06,26,06,58,17.90
2015,06,26,06,59,17.90
2015,06,26,07,00,18.10
2015,06,26,07,01,18.20
2015,06,26,07,02,18.20
2015,06,26,07,03,18.30
2015,06,26,07,04,18.30
2015,06,26,07,05,18.30
2015,06,26,07,06,18.40
2015,06,26,07,07,18.40
2015,06,26,07,08,18.40
2015,06,26,07,09,18.40
2015,06,26,07,10,18.40
2015,06,26,07,11,18.40
2015,06,26,07,12,18.50
2015,06,26,07,13,18.50
2015,06,26,07,14,18.50
2015,06,26,07,15,18.50
2015,06,26,07,16,18.50
2015,06,26,07,17,18.50
2015,06,26,07,18,18.50
2015,06,26,07,19,18.50
2015,06,26,07,20,18.50
2015,06,26,07,21,18.50
2015,06,26,07,22,18.60
2015,06,26,07,23,18.60
2015,06,26,07,24,18.60
2015,06,26,07,25,18.60
2015,06,26,07,26,18.60
2015,06,26,07,27,18.70
2015,06,26,07,28,18.70
2015,06,26,07,29,18.70
2015,06,26,07,30,18.70
2015,06,26,07,31,18.70
2015,06,26,07,32,18.70
2015,06,26,07,33,18.70
2015,06,26,07,34,18.70
2015,06,26,07,35,18.70
2015,06,26,07,36,18.70
2015,06,26,07,37,18.60
2015,06,26,07,38,18.60
2015,06,26,07,39,18.60
2015,06,26,07,40,18.60
2015,06,26,07,41,18.50
2015,06,26,07,42,18.50
2015,06,26,07,43,18.40
2015,06,26,07,44,18.40
2015,06,26,07,45,18.40
2015,06,26,07,46,18.40
2015,06,26,07,47,18.40
2015,06,26,07,48,18.40
2015,06,26,07,49,18.40
2015,06,26,07,50,18.40
2015,06,26,07,51,18.40
2015,06,26,07,52,18.40
2015,06,26,07,53,18.50
2015,06,26,07,54,18.50
2015,06,26,07,55,18.50
2015,06,26,07,56,18.60
2015,06,26,07,57,18.70
2015,06,26,07,58,18.80
2015,06,26,07,59,18.80
2015,06,26,08,00,18.90
2015,06,26,08,01,18.90
2015,06,26,08,02,18.90
2015,06,26,08,03,19.00
2015,06,26,08,04,19.10
2015,06,26,08,05,19.10
2015,06,26,08,06,19.10
2015,06,26,08,07,19.20
2015,06,26,08,08,19.20
2015,06,26,08,09,19.30
2015,06,26,08,10,19.30
2015,06,26,08,11,19.40
2015,06,26,08,12,19.40
2015,06,26,08,13,19.40
2015,06,26,08,14,19.40
2015,06,26,08,15,19.50
2015,06,26,08,16,19.50
2015,06,26,08,17,19.50
2015,06,26,08,18,19.60
2015,06,26,08,19,19.60
2015,06,26,08,20,19.70
2015,06,26,08,21,19.80
2015,06,26,08,22,19.80
2015,06,26,08,23,19.90
2015,06,26,08,24,19.90
2015,06,26,08,25,20.00
2015,06,26,08,26,20.10
2015,06,26,08,27,20.20
2015,06,26,08,28,20.30
2015,06,26,08,29,20.40
2015,06,26,08,30,20.40
2015,06,26,08,31,20.50
2015,06,26,08,32,20.60
2015,06,26,08,33,20.60
2015,06,26,08,34,20.70
2015,06,26,08,35,20.70
2015,06,26,08,36,20.80
2015,06,26,08,37,20.80
2015,06,26,08,38,20.90
2015,06,26,08,39,20.90
2015,06,26,08,40,21.00
2015,06,26,08,41,21.00
2015,06,26,08,42,21.10
2015,06,26,08,43,21.10
2015,06,26,08,44,21.20
2015,06,26,08,45,21.20
2015,06,26,08,46,21.20
2015,06,26,08,47,21.20
2015,06,26,08,48,21.20
2015,06,26,08,49,21.20
2015,06,26,08,50,21.20
2015,06,26,08,51,21.20
2015,06,26,08,52,21.20
2015,06,26,08,53,21.30
2015,06,26,08,54,21.30
2015,06,26,08,55,21.30
2015,06,26,08,56,21.30
2015,06,26,08,57,21.30
2015,06,26,08,58,21.30
2015,06,26,08,59,21.30
2015,06,26,09,00,21.20
2015,06,26,09,01,21.20
2015,06,26,09,02,21.00
2015,06,26,09,03,21.00
2015,06,26,09,04,20.80
2015,06,26,09,05,20.70
2015,06,26,09,06,20.60
2015,06,26,09,07,20.50
2015,06,26,09,08,20.40
2015,06,26,09,09,20.40
2015,06,26,09,10,20.30
2015,06,26,09,11,20.30
2015,06,26,09,12,20.30
2015,06,26,09,13,20.40
2015,06,26,09,14,20.50
2015,06,26,09,15,20.50
2015,06,26,09,16,20.60
2015,06,26,09,17,20.70
2015,06,26,09,18,20.80
2015,06,26,09,19,20.90
2015,06,26,09,20,21.00
2015,06,26,09,21,21.00
2015,06,26,09,22,20.90
2015,06,26,09,23,20.80
2015,06,26,09,24,20.80
2015,06,26,09,25,20.70
2015,06,26,09,26,20.70
2015,06,26,09,27,20.80
2015,06,26,09,28,20.80
2015,06,26,09,29,20.90
2015,06,26,09,30,21.00
2015,06,26,09,31,21.10
2015,06,26,09,32,21.20
2015,06,26,09,33,21.30
2015,06,26,09,34,21.30
2015,06,26,09,35,21.50
2015,06,26,09,36,21.60
2015,06,26,09,37,21.60
2015,06,26,09,38,21.60
2015,06,26,09,39,21.70
2015,06,26,09,40,21.80
2015,06,26,09,41,21.80
2015,06,26,09,42,21.90
2015,06,26,09,43,21.90
2015,06,26,09,44,21.90
2015,06,26,09,45,21.90
2015,06,26,09,46,21.90
2015,06,26,09,47,21.90
2015,06,26,09,48,21.90
2015,06,26,09,49,22.00
2015,06,26,09,50,22.00
2015,06,26,09,51,22.10
2015,06,26,09,52,22.20
2015,06,26,09,53,22.20
2015,06,26,09,54,22.30
2015,06,26,09,55,22.30
2015,06,26,09,56,22.40
2015,06,26,09,57,22.50
2015,06,26,09,58,22.60
2015,06,26,09,59,22.70
2015,06,26,10,00,22.70
2015,06,26,10,01,22.70
2015,06,26,10,02,22.70
2015,06,26,10,03,22.70
2015,06,26,10,04,22.60
2015,06,26,10,05,22.60
2015,06,26,10,06,22.50
2015,06,26,10,07,22.60
2015,06,26,10,08,22.70
2015,06,26,10,09,22.70
2015,06,26,10,10,22.60
2015,06,26,10,11,22.40
2015,06,26,10,12,22.30
2015,06,26,10,13,22.30
2015,06,26,10,14,22.30
2015,06,26,10,15,22.30
2015,06,26,10,16,22.20
2015,06,26,10,17,22.30
2015,06,26,10,18,22.30
2015,06,26,10,19,22.40
2015,06,26,10,20,22.50
2015,06,26,10,21,22.60
2015,06,26,10,22,22.60
2015,06,26,10,23,22.70
2015,06,26,10,24,22.80
2015,06,26,10,25,22.80
2015,06,26,10,26,22.90
2015,06,26,10,27,22.90
2015,06,26,10,28,22.90
2015,06,26,10,29,22.80
2015,06,26,10,30,22.80
2015,06,26,10,31,22.70
2015,06,26,10,32,22.70
2015,06,26,10,33,22.70
2015,06,26,10,34,22.80
2015,06,26,10,35,22.80
2015,06,26,10,36,22.80
2015,06,26,10,37,22.80
2015,06,26,10,38,22.80
2015,06,26,10,39,22.70
2015,06,26,10,40,22.80
2015,06,26,10,41,22.80
2015,06,26,10,42,22.80
2015,06,26,10,43,22.90
2015,06,26,10,44,22.90
2015,06,26,10,45,22.90
2015,06,26,10,46,22.80
2015,06,26,10,47,22.80
2015,06,26,10,48,22.80
2015,06,26,10,49,22.90
2015,06,26,10,50,22.90
2015,06,26,10,51,22.90
2015,06,26,10,52,23.00
2015,06,26,10,53,23.10
2015,06,26,10,54,23.30
2015,06,26,10,55,23.30
2015,06,26,10,56,23.30
2015,06,26,10,57,23.30
2015,06,26,10,58,23.30
2015,06,26,10,59,23.30
2015,06,26,11,00,23.30
2015,06,26,11,01,23.40
2015,06,26,11,02,23.40
2015,06,26,11,03,23.60
2015,06,26,11,04,23.60
2015,06,26,11,05,23.60
2015,06,26,11,06,23.40
2015,06,26,11,07,23.40
2015,06,26,11,08,23.30
2015,06,26,11,09,23.40
2015,06,26,11,10,23.40
2015,06,26,11,11,23.50
2015,06,26,11,12,23.60
2015,06,26,11,13,23.70
2015,06,26,11,14,23.80
2015,06,26,11,15,23.80
2015,06,26,11,16,23.80
2015,06,26,11,17,23.80
2015,06,26,11,18,23.90
2015,06,26,11,19,23.90
2015,06,26,11,20,23.80
2015,06,26,11,21,23.80
2015,06,26,11,22,23.70
2015,06,26,11,23,23.70
2015,06,26,11,24,23.70
2015,06,26,11,25,23.60
2015,06,26,11,26,23.40
2015,06,26,11,27,23.40
2015,06,26,11,28,23.40
2015,06,26,11,29,23.40
2015,06,26,11,30,23.40
2015,06,26,11,31,23.40
2015,06,26,11,32,23.30
2015,06,26,11,33,23.30
2015,06,26,11,34,23.30
2015,06,26,11,35,23.40
2015,06,26,11,36,23.50
2015,06,26,11,37,23.60
2015,06,26,11,38,23.70
2015,06,26,11,39,23.70
2015,06,26,11,40,23.70
2015,06,26,11,41,23.80
2015,06,26,11,42,23.80
2015,06,26,11,43,23.80
2015,06,26,11,44,23.80
2015,06,26,11,45,23.70
2015,06,26,11,46,23.70
2015,06,26,11,47,23.80
2015,06,26,11,48,23.80
2015,06,26,11,49,23.80
2015,06,26,11,50,23.80
2015,06,26,11,51,23.80
2015,06,26,11,52,23.70
2015,06,26,11,53,23.50
2015,06,26,11,54,23.40
2015,06,26,11,55,23.30
2015,06,26,11,56,23.30
2015,06,26,11,57,23.30
2015,06,26,11,58,23.30
2015,06,26,11,59,23.40
2015,06,26,12,00,23.30
2015,06,26,12,01,23.30
2015,06,26,12,02,23.30
2015,06,26,12,03,23.30
2015,06,26,12,04,23.30
2015,06,26,12,05,23.30
2015,06,26,12,06,23.30
2015,06,26,12,07,23.30
2015,06,26,12,08,23.30
2015,06,26,12,09,23.30
2015,06,26,12,10,23.20
2015,06,26,12,11,23.20
2015,06,26,12,12,23.20
2015,06,26,12,13,23.20
2015,06,26,12,14,23.30
2015,06,26,12,15,23.50
2015,06,26,12,16,23.60
2015,06,26,12,17,23.60
2015,06,26,12,18,23.70
2015,06,26,12,19,23.70
2015,06,26,12,20,23.80
2015,06,26,12,21,23.90
2015,06,26,12,22,23.90
2015,06,26,12,23,23.90
2015,06,26,12,24,23.90
2015,06,26,12,25,23.80
2015,06,26,12,26,23.70
2015,06,26,12,27,23.70
2015,06,26,12,28,23.80
2015,06,26,12,29,23.90
2015,06,26,12,30,24.10
2015,06,26,12,31,24.10
2015,06,26,12,32,24.20
2015,06,26,12,33,24.30
2015,06,26,12,34,24.40
2015,06,26,12,35,24.40
2015,06,26,12,36,24.30
2015,06,26,12,37,24.10
2015,06,26,12,38,23.90
2015,06,26,12,39,23.80
2015,06,26,12,40,23.70
2015,06,26,12,41,23.70
2015,06,26,12,42,23.70
2015,06,26,12,43,23.70
2015,06,26,12,44,23.60
2015,06,26,12,45,23.50
2015,06,26,12,46,23.30
2015,06,26,12,47,23.30
2015,06,26,12,48,23.30
2015,06,26,12,49,23.30
2015,06,26,12,50,23.30
2015,06,26,12,51,23.30
2015,06,26,12,52,23.30
2015,06,26,12,53,23.40
2015,06,26,12,54,23.40
2015,06,26,12,55,23.40
2015,06,26,12,56,23.30
2015,06,26,12,57,23.30
2015,06,26,12,58,23.20
2015,06,26,12,59,23.10
2015,06,26,13,00,23.20
2015,06,26,13,01,23.20
2015,06,26,13,02,23.20
2015,06,26,13,03,23.20
2015,06,26,13,04,23.10
2015,06,26,13,05,22.90
2015,06,26,13,06,22.80
2015,06,26,13,07,22.70
2015,06,26,13,08,22.40
2015,06,26,13,09,22.20
2015,06,26,13,10,22.00
2015,06,26,13,11,21.90
2015,06,26,13,12,21.90
2015,06,26,13,13,21.80
2015,06,26,13,14,21.70
2015,06,26,13,15,21.70
2015,06,26,13,16,21.70
2015,06,26,13,17,21.70
2015,06,26,13,18,21.70
2015,06,26,13,19,21.60
2015,06,26,13,20,21.60
2015,06,26,13,21,21.80
2015,06,26,13,22,21.90
2015,06,26,13,23,22.20
2015,06,26,13,24,22.30
2015,06,26,13,25,22.60
2015,06,26,13,26,22.70
2015,06,26,13,27,22.80
2015,06,26,13,28,22.90
2015,06,26,13,29,23.00
2015,06,26,13,30,23.20
2015,06,26,13,31,23.30
2015,06,26,13,32,23.40
2015,06,26,13,33,23.40
2015,06,26,13,34,23.50
2015,06,26,13,35,23.60
2015,06,26,13,36,23.70
2015,06,26,13,37,23.70
2015,06,26,13,38,23.70
2015,06,26,13,39,23.80
2015,06,26,13,40,23.90
2015,06,26,13,41,24.00
2015,06,26,13,42,24.10
2015,06,26,13,43,24.10
2015,06,26,13,44,24.10
2015,06,26,13,45,24.10
2015,06,26,13,46,24.10
2015,06,26,13,47,24.10
2015,06,26,13,48,24.10
2015,06,26,13,49,24.10
2015,06,26,13,50,24.20
2015,06,26,13,51,24.30
2015,06,26,13,52,24.30
2015,06,26,13,53,24.30
2015,06,26,13,54,24.30
2015,06,26,13,55,24.30
2015,06,26,13,56,24.30
2015,06,26,13,57,24.20
2015,06,26,13,58,24.20
2015,06,26,13,59,24.30
2015,06,26,14,00,24.30
2015,06,26,14,01,24.30
2015,06,26,14,02,24.20
2015,06,26,14,03,24.20
2015,06,26,14,04,24.10
2015,06,26,14,05,24.10
2015,06,26,14,06,24.20
2015,06,26,14,07,24.20
2015,06,26,14,08,24.10
2015,06,26,14,09,24.10
2015,06,26,14,10,24.10
2015,06,26,14,11,24.10
2015,06,26,14,12,24.10
2015,06,26,14,13,24.20
2015,06,26,14,14,24.20
2015,06,26,14,15,24.30
2015,06,26,14,16,24.30
2015,06,26,14,17,24.40
2015,06,26,14,18,24.50
2015,06,26,14,19,24.40
2015,06,26,14,20,24.40
2015,06,26,14,21,24.40
2015,06,26,14,22,24.40
2015,06,26,14,23,24.40
2015,06,26,14,24,24.40
2015,06,26,14,25,24.50
2015,06,26,14,26,24.50
2015,06,26,14,27,24.50
2015,06,26,14,28,24.50
2015,06,26,14,29,24.50
2015,06,26,14,30,24.50
2015,06,26,14,31,24.50
2015,06,26,14,32,24.50
2015,06,26,14,33,24.50
2015,06,26,14,34,24.50
2015,06,26,14,35,24.50
2015,06,26,14,36,24.50
2015,06,26,14,37,24.50
2015,06,26,14,38,24.50
2015,06,26,14,39,24.50
2015,06,26,14,40,24.40
2015,06,26,14,41,24.30
2015,06,26,14,42,24.30
2015,06,26,14,43,24.20
2015,06,26,14,44,24.30
2015,06,26,14,45,24.30
2015,06,26,14,46,24.30
2015,06,26,14,47,24.30
2015,06,26,14,48,24.30
2015,06,26,14,49,24.40
2015,06,26,14,50,24.40
2015,06,26,14,51,24.40
2015,06,26,14,52,24.50
2015,06,26,14,53,24.50
2015,06,26,14,54,24.60
2015,06,26,14,55,24.70
2015,06,26,14,56,24.70
2015,06,26,14,57,24.80
2015,06,26,14,58,24.80
2015,06,26,14,59,24.90
2015,06,26,15,00,24.80
2015,06,26,15,01,24.80
2015,06,26,15,02,24.80
2015,06,26,15,03,24.80
2015,06,26,15,04,24.90
2015,06,26,15,05,24.90
2015,06,26,15,06,24.90
2015,06,26,15,07,24.90
2015,06,26,15,08,24.80
2015,06,26,15,09,24.60
2015,06,26,15,10,24.60
2015,06,26,15,11,24.50
2015,06,26,15,12,24.40
2015,06,26,15,13,24.40
2015,06,26,15,14,24.50
2015,06,26,15,15,24.50
2015,06,26,15,16,24.60
2015,06,26,15,17,24.60
2015,06,26,15,18,24.60
2015,06,26,15,19,24.50
2015,06,26,15,20,24.40
2015,06,26,15,21,24.40
2015,06,26,15,22,24.30
2015,06,26,15,23,24.30
2015,06,26,15,24,24.20
2015,06,26,15,25,24.10
2015,06,26,15,26,24.10
2015,06,26,15,27,24.00
2015,06,26,15,28,23.90
2015,06,26,15,29,23.80
2015,06,26,15,30,23.80
2015,06,26,15,31,23.80
2015,06,26,15,32,23.80
2015,06,26,15,33,23.80
2015,06,26,15,34,23.80
2015,06,26,15,35,23.90
2015,06,26,15,36,23.90
2015,06,26,15,37,24.00
2015,06,26,15,38,24.10
2015,06,26,15,39,23.90
2015,06,26,15,40,23.90
2015,06,26,15,41,23.90
2015,06,26,15,42,24.10
2015,06,26,15,43,24.10
2015,06,26,15,44,24.10
2015,06,26,15,45,24.30
2015,06,26,15,46,24.30
2015,06,26,15,47,24.40
2015,06,26,15,48,24.50
2015,06,26,15,49,24.50
2015,06,26,15,50,24.50
2015,06,26,15,51,24.50
2015,06,26,15,52,24.50
2015,06,26,15,53,24.50
2015,06,26,15,54,24.50
2015,06,26,15,55,24.40
2015,06,26,15,56,24.30
2015,06,26,15,57,24.20
2015,06,26,15,58,24.20
2015,06,26,15,59,24.10
2015,06,26,16,00,23.90
2015,06,26,16,01,23.90
2015,06,26,16,02,23.70
2015,06,26,16,03,23.70
2015,06,26,16,04,23.70
2015,06,26,16,05,23.70
2015,06,26,16,06,23.90
2015,06,26,16,07,24.00
2015,06,26,16,08,24.10
2015,06,26,16,09,24.30
2015,06,26,16,10,24.40
2015,06,26,16,11,24.50
2015,06,26,16,12,24.60
2015,06,26,16,13,24.70
2015,06,26,16,14,24.80
2015,06,26,16,15,24.90
2015,06,26,16,16,25.00
2015,06,26,16,17,25.10
2015,06,26,16,18,25.20
2015,06,26,16,19,25.20
2015,06,26,16,20,25.30
2015,06,26,16,21,25.40
2015,06,26,16,22,25.40
2015,06,26,16,23,25.50
2015,06,26,16,24,25.50
2015,06,26,16,25,25.50
2015,06,26,16,26,25.50
2015,06,26,16,27,25.50
2015,06,26,16,28,25.50
2015,06,26,16,29,25.50
2015,06,26,16,30,25.50
2015,06,26,16,31,25.60
2015,06,26,16,32,25.60
2015,06,26,16,33,25.60
2015,06,26,16,34,25.60
2015,06,26,16,35,25.70
2015,06,26,16,36,25.60
2015,06,26,16,37,25.60
2015,06,26,16,38,25.60
2015,06,26,16,39,25.60
2015,06,26,16,40,25.60
2015,06,26,16,41,25.50
2015,06,26,16,42,25.50
2015,06,26,16,43,25.50
2015,06,26,16,44,25.40
2015,06,26,16,45,25.40
2015,06,26,16,46,25.40
2015,06,26,16,47,25.40
2015,06,26,16,48,25.40
2015,06,26,16,49,25.30
2015,06,26,16,50,25.30
2015,06,26,16,51,25.30
2015,06,26,16,52,25.30
2015,06,26,16,53,25.20
2015,06,26,16,54,25.30
2015,06,26,16,55,25.30
2015,06,26,16,56,25.30
2015,06,26,16,57,25.40
2015,06,26,16,58,25.40
2015,06,26,16,59,25.50
2015,06,26,17,00,25.50
2015,06,26,17,01,25.60
2015,06,26,17,02,25.70
2015,06,26,17,03,25.80
2015,06,26,17,04,25.90
2015,06,26,17,05,25.90
2015,06,26,17,06,26.00
2015,06,26,17,07,26.10
2015,06,26,17,08,26.20
2015,06,26,17,09,26.20
2015,06,26,17,10,26.20
2015,06,26,17,11,26.10
2015,06,26,17,12,26.10
2015,06,26,17,13,26.10
2015,06,26,17,14,26.10
2015,06,26,17,15,26.10
2015,06,26,17,16,26.10
2015,06,26,17,17,26.10
2015,06,26,17,18,26.00
2015,06,26,17,19,25.90
2015,06,26,17,20,25.70
2015,06,26,17,21,25.40
2015,06,26,17,22,25.40
2015,06,26,17,23,25.30
2015,06,26,17,24,25.20
2015,06,26,17,25,25.00
2015,06,26,17,26,25.00
2015,06,26,17,27,24.90
2015,06,26,17,28,24.90
2015,06,26,17,29,24.80
2015,06,26,17,30,24.90
2015,06,26,17,31,24.90
2015,06,26,17,32,24.90
2015,06,26,17,33,24.90
2015,06,26,17,34,24.80
2015,06,26,17,35,24.80
2015,06,26,17,36,24.70
2015,06,26,17,37,24.70
2015,06,26,17,38,24.70
2015,06,26,17,39,24.70
2015,06,26,17,40,24.60
2015,06,26,17,41,24.60
2015,06,26,17,42,24.50
2015,06,26,17,43,24.40
2015,06,26,17,44,24.30
2015,06,26,17,45,24.20
2015,06,26,17,46,24.10
2015,06,26,17,47,24.10
2015,06,26,17,48,24.10
2015,06,26,17,49,24.10
2015,06,26,17,50,24.10
2015,06,26,17,51,24.10
2015,06,26,17,52,24.00
2015,06,26,17,53,23.80
2015,06,26,17,54,23.60
2015,06,26,17,55,23.50
2015,06,26,17,56,23.40
2015,06,26,17,57,23.40
2015,06,26,17,58,23.40
2015,06,26,17,59,23.30
2015,06,26,18,00,23.30
2015,06,26,18,01,23.40
2015,06,26,18,02,23.40
2015,06,26,18,03,23.40
2015,06,26,18,04,23.30
2015,06,26,18,05,23.20
2015,06,26,18,06,23.10
2015,06,26,18,07,23.10
2015,06,26,18,08,23.10
2015,06,26,18,09,23.10
2015,06,26,18,10,23.20
2015,06,26,18,11,23.10
2015,06,26,18,12,23.10
2015,06,26,18,13,23.20
2015,06,26,18,14,23.30
2015,06,26,18,15,23.30
2015,06,26,18,16,23.30
2015,06,26,18,17,23.40
2015,06,26,18,18,23.50
2015,06,26,18,19,23.60
2015,06,26,18,20,23.70
2015,06,26,18,21,23.70
2015,06,26,18,22,23.70
2015,06,26,18,23,23.70
2015,06,26,18,24,23.70
2015,06,26,18,25,23.70
2015,06,26,18,26,23.60
2015,06,26,18,27,23.60
2015,06,26,18,28,23.50
2015,06,26,18,29,23.40
2015,06,26,18,30,23.30
2015,06,26,18,31,23.30
2015,06,26,18,32,23.30
2015,06,26,18,33,23.30
2015,06,26,18,34,23.30
2015,06,26,18,35,23.30
2015,06,26,18,36,23.30
2015,06,26,18,37,23.30
2015,06,26,18,38,23.30
2015,06,26,18,39,23.30
2015,06,26,18,40,23.40
2015,06,26,18,41,23.40
2015,06,26,18,42,23.50
2015,06,26,18,43,23.60
2015,06,26,18,44,23.60
2015,06,26,18,45,23.60
2015,06,26,18,46,23.60
2015,06,26,18,47,23.60
2015,06,26,18,48,23.60
2015,06,26,18,49,23.60
2015,06,26,18,50,23.70
2015,06,26,18,51,23.60
2015,06,26,18,52,23.60
2015,06,26,18,53,23.50
2015,06,26,18,54,23.40
2015,06,26,18,55,23.40
2015,06,26,18,56,23.30
2015,06,26,18,57,23.30
2015,06,26,18,58,23.30
2015,06,26,18,59,23.30
2015,06,26,19,00,23.20
2015,06,26,19,01,23.20
2015,06,26,19,02,23.10
2015,06,26,19,03,23.00
2015,06,26,19,04,22.90
2015,06,26,19,05,22.90
2015,06,26,19,06,22.90
2015,06,26,19,07,22.80
2015,06,26,19,08,22.80
2015,06,26,19,09,22.70
2015,06,26,19,10,22.60
2015,06,26,19,11,22.50
2015,06,26,19,12,22.50
2015,06,26,19,13,22.40
2015,06,26,19,14,22.40
2015,06,26,19,15,22.30
2015,06,26,19,16,22.20
2015,06,26,19,17,22.00
2015,06,26,19,18,21.90
2015,06,26,19,19,21.80
2015,06,26,19,20,21.70
2015,06,26,19,21,21.60
2015,06,26,19,22,21.60
2015,06,26,19,23,21.60
2015,06,26,19,24,21.60
2015,06,26,19,25,21.60
2015,06,26,19,26,21.60
2015,06,26,19,27,21.60
2015,06,26,19,28,21.60
2015,06,26,19,29,21.60
2015,06,26,19,30,21.60
2015,06,26,19,31,21.50
2015,06,26,19,32,21.40
2015,06,26,19,33,21.40
2015,06,26,19,34,21.40
2015,06,26,19,35,21.30
2015,06,26,19,36,21.30
2015,06,26,19,37,21.30
2015,06,26,19,38,21.30
2015,06,26,19,39,21.30
2015,06,26,19,40,21.30
2015,06,26,19,41,21.30
2015,06,26,19,42,21.30
2015,06,26,19,43,21.30
2015,06,26,19,44,21.30
2015,06,26,19,45,21.30
2015,06,26,19,46,21.30
2015,06,26,19,47,21.30
2015,06,26,19,48,21.30
2015,06,26,19,49,21.30
2015,06,26,19,50,21.30
2015,06,26,19,51,21.30
2015,06,26,19,52,21.30
2015,06,26,19,53,21.30
2015,06,26,19,54,21.30
2015,06,26,19,55,21.30
2015,06,26,19,56,21.30
2015,06,26,19,57,21.30
2015,06,26,19,58,21.30
2015,06,26,19,59,21.30
2015,06,26,20,00,21.40
2015,06,26,20,01,21.40
2015,06,26,20,02,21.50
2015,06,26,20,03,21.60
2015,06,26,20,04,21.60
2015,06,26,20,05,21.70
2015,06,26,20,06,21.80
2015,06,26,20,07,21.80
2015,06,26,20,08,21.90
2015,06,26,20,09,21.90
2015,06,26,20,10,22.00
2015,06,26,20,11,22.00
2015,06,26,20,12,22.00
2015,06,26,20,13,22.00
2015,06,26,20,14,21.90
2015,06,26,20,15,21.90
2015,06,26,20,16,21.80
2015,06,26,20,17,21.80
2015,06,26,20,18,21.70
2015,06,26,20,19,21.70
2015,06,26,20,20,21.60
2015,06,26,20,21,21.50
2015,06,26,20,22,21.40
2015,06,26,20,23,21.30
2015,06,26,20,24,21.20
2015,06,26,20,25,21.20
2015,06,26,20,26,21.20
2015,06,26,20,27,21.20
2015,06,26,20,28,21.20
2015,06,26,20,29,21.20
2015,06,26,20,30,21.20
2015,06,26,20,31,21.20
2015,06,26,20,32,21.20
2015,06,26,20,33,21.20
2015,06,26,20,34,21.20
2015,06,26,20,35,21.10
2015,06,26,20,36,21.00
2015,06,26,20,37,20.90
2015,06,26,20,38,20.90
2015,06,26,20,39,20.90
2015,06,26,20,40,20.80
2015,06,26,20,41,20.80
2015,06,26,20,42,20.70
2015,06,26,20,43,20.70
2015,06,26,20,44,20.70
2015,06,26,20,45,20.70
2015,06,26,20,46,20.70
2015,06,26,20,47,20.70
2015,06,26,20,48,20.70
2015,06,26,20,49,20.70
2015,06,26,20,50,20.70
2015,06,26,20,51,20.70
2015,06,26,20,52,20.70
2015,06,26,20,53,20.70
2015,06,26,20,54,20.70
2015,06,26,20,55,20.60
2015,06,26,20,56,20.50
2015,06,26,20,57,20.40
2015,06,26,20,58,20.40
2015,06,26,20,59,20.30
2015,06,26,21,00,20.30
2015,06,26,21,01,20.30
2015,06,26,21,02,20.20
2015,06,26,21,03,20.20
2015,06,26,21,04,20.20
2015,06,26,21,05,20.20
2015,06,26,21,06,20.20
2015,06,26,21,07,20.20
2015,06,26,21,08,20.20
2015,06,26,21,09,20.20
2015,06,26,21,10,20.20
2015,06,26,21,11,20.20
2015,06,26,21,12,20.20
